Flag for Germany Weather past 2 weeks in Dietzenbach, Hesse, Germany

Now
35 °F

Light rain. Overcast.


Feels Like: 35 °F
Forecast: 34 / 39 °F
Wind: 2 mph from South

Location: Frankfurt / M-Flughafen

Current Time: Jan 25, 2015 at 11:45:18 PM

Latest Report: Jan 25, 2015 at 9:00 PM


Visibility: 6 mi

Pressure: 30.41 "Hg

Humidity: 97%

Dew point: 34 °F

Location of DietzenbachLocation

Historic Weather in Dietzenbach — Graph

°F

Dietzenbach temperature yesterday

Maximum temperature yesterday: 35 °F (at 9:00 PM)
Minimum temperature yesterday: 24 °F (at 3:00 AM)
Average temperature yesterday: 30 °F

Past Weeks' High & Low Weather Summary

 TemperatureHumidityPressure
High56 °F (Jan 13, 3:00 PM)100% (Jan 16, 11:00 PM)30.45 "Hg (Jan 16, 11:00 PM)
Low24 °F (Jan 24, 3:00 AM)44% (Jan 13, 3:00 PM)29.64 "Hg (Jan 15, 7:00 PM)
Average38 °F83%30.02 "Hg
* Reported Jan 10 9:00 PM — Jan 25 9:00 PM, Dietzenbach, Weather by CustomWeather, © 2014

Note: Actual official high and low records may vary slightly from our data, if they occured in-between our weather recording intervals... More about our weather records

Advertising

Dietzenbach weather history for previous 24 hours

 ConditionsComfort  
Time TempWeatherWind HumidityBarometerVisibility
9:00 PM
Jan 25
35 °FLight rain. Overcast.2 mph97%30.41 "Hg6 mi
8:00 PM36 °FLight rain. Overcast.5 mph94%30.42 "Hg9 mi
7:00 PM36 °FOvercast.2 mph93%30.42 "Hg11 mi
6:00 PM37 °FOvercast.3 mph90%30.42 "Hg11 mi
5:00 PM37 °FOvercast.3 mph91%30.42 "Hg12 mi
4:00 PM38 °FLow clouds.3 mph92%30.41 "Hg11 mi
3:00 PM37 °FLow clouds.5 mph91%30.40 "Hg11 mi
2:00 PM37 °FLow clouds.3 mph90%30.42 "Hg11 mi
1:00 PM37 °FOvercast.3 mph90%30.43 "Hg11 mi
12:00 PM36 °FOvercast.3 mph88%30.45 "Hg14 mi
11:00 AM35 °FOvercast.5 mph92%30.45 "Hg14 mi
9:00 AM32 °FOvercast.3 mph95%30.43 "Hg14 mi
8:00 AM33 °FOvercast.5 mph92%30.42 "Hg14 mi
7:00 AM28 °FPassing clouds.3 mph100%30.40 "Hg16 mi
6:00 AM31 °FPassing clouds.3 mph100%30.38 "Hg16 mi
3:00 AM35 °FPassing clouds.3 mph86%30.34 "Hg14 mi
2:00 AM34 °FPassing clouds.3 mph91%30.32 "Hg14 mi
1:00 AM35 °FPassing clouds.6 mph88%30.31 "Hg14 mi
12:00 AM35 °FClear.3 mph92%30.29 "Hg12 mi
Weather by CustomWeather, © 2014

See weather overviewHow to use our weather pages